Weather History for Shannon, Ireland

Change the Weather History Date:

Thursday, November 7, 2013

  Actual Average Record
Temperature  
Mean Temperature 46 °F -  
Max Temperature 52 °F 50 °F 62 °F (1997)
Min Temperature 41 °F 40 °F 37 °F (1996)
Degree Days  
Heating Degree Days 18    
Moisture  
Dew Point 42 °F    
Average Humidity 84    
Maximum Humidity 93    
Minimum Humidity 72    
Precipitation  
Precipitation 0.08 in 0.13 in - ()
Sea Level Pressure  
Sea Level Pressure 29.59 in    
Wind  
Wind Speed 12 mph ()    
Max Wind Speed 23 mph    
Max Gust Speed 28 mph    
Visibility 6.5 miles    
Events Rain    
Averages and records for this station are not official NWS values.
T = Trace of Precipitation, MM = Missing Value Source: Averaged Metar Reports

Daily Weather History Graph

Daily Weather History Graph

Search for Another Location

Airport:

Trip Planner

Search our weather history database for the weather conditions in past years. The results will help you decide how hot, cold, wet, or windy it might be!

Date:

Astronomy

Nov. 07, 2013 Rise Set
Actual Time 7:43 AM GMT 4:54 PM GMT
Civil Twilight 7:06 AM GMT 5:31 PM GMT
Nautical Twilight 6:25 AM GMT 6:12 PM GMT
Astronomical Twilight 5:45 AM GMT 6:52 PM GMT
Moon 11:49 AM GMT (11/7) 8:43 PM GMT (11/7)
Length of Visible Light 10h 24m
Length of Day
9h 10m
Waxing Crescent, 20% of the Moon is Illuminated
Nov 7
Waxing Crescent
Nov 10
First Quarter
Nov 17
Full
Nov 25
Last Quarter
Dec 3
New

Hourly Weather History & Observations

Time (GMT) Temp. Windchill Dew Point Humidity Pressure Visibility Wind Dir Wind Speed Gust Speed Precip Events Conditions
12:00 AM 44.6 °F 38.8 °F 39.2 °F 81% 29.59 in 6.2 mi SW 11.5 mph - N/A   Scattered Clouds
12:30 AM 44.6 °F 37.4 °F 39.2 °F 81% 29.62 in 6.2 mi WSW 16.1 mph 27.6 mph N/A Rain Light Rain Showers
1:00 AM 44.6 °F 39.2 °F 39.2 °F 81% 29.59 in 6.2 mi SSW 10.4 mph - N/A   Scattered Clouds
1:30 AM 42.8 °F 37.0 °F 39.2 °F 87% 29.62 in 6.2 mi South 10.4 mph - N/A   Partly Cloudy
2:00 AM 42.8 °F 37.5 °F 39.2 °F 87% 29.59 in 6.2 mi South 9.2 mph - N/A   Partly Cloudy
2:30 AM 42.8 °F 37.0 °F 39.2 °F 87% 29.59 in 6.2 mi South 10.4 mph - N/A   Partly Cloudy
3:00 AM 42.8 °F 37.0 °F 39.2 °F 87% 29.59 in 6.2 mi South 10.4 mph - N/A   Partly Cloudy
3:30 AM 42.8 °F 35.1 °F 39.2 °F 87% 29.59 in 6.2 mi SSW 16.1 mph - N/A   Scattered Clouds
4:00 AM 42.8 °F 37.0 °F 37.4 °F 81% 29.59 in 6.2 mi South 10.4 mph - N/A   Scattered Clouds
4:30 AM 42.8 °F 35.8 °F 39.2 °F 87% 29.56 in 6.2 mi South 13.8 mph - N/A   Partly Cloudy
5:00 AM 42.8 °F 35.8 °F 39.2 °F 87% 29.56 in 6.2 mi South 13.8 mph - N/A   Scattered Clouds
5:30 AM 42.8 °F 34.5 °F 41.0 °F 93% 29.59 in 3.7 mi SSW 18.4 mph - N/A Rain Light Rain Showers
6:00 AM 42 °F - 40 °F 88% 29.60 in 12 mi SSE 11.2 mph - - Rain Light Rain Showers
6:00 AM 42.8 °F 37.0 °F 39.2 °F 87% 29.59 in 6.2 mi SSE 10.4 mph - N/A   Scattered Clouds
6:30 AM 42.8 °F 38.6 °F 41.0 °F 93% 29.59 in 5.6 mi South 6.9 mph - N/A Rain Light Rain Showers
7:00 AM 42.8 °F 36.2 °F 41.0 °F 93% 29.59 in 5.0 mi SSE 12.7 mph - N/A Rain Light Rain Showers
7:30 AM 42.8 °F 36.2 °F 41.0 °F 93% 29.56 in 6.2 mi SSE 12.7 mph - N/A   Scattered Clouds
8:00 AM 42.8 °F 36.6 °F 41.0 °F 93% 29.56 in 6.2 mi SSE 11.5 mph - N/A   Partly Cloudy
8:30 AM 42.8 °F 35.8 °F 41.0 °F 93% 29.56 in 6.2 mi SSE 13.8 mph - N/A   Partly Cloudy
9:00 AM 44.6 °F 38.1 °F 41.0 °F 87% 29.56 in 6.2 mi South 13.8 mph - N/A   Scattered Clouds
9:30 AM 46.4 °F 40.7 °F 42.8 °F 87% 29.59 in 6.2 mi South 12.7 mph - N/A   Partly Cloudy
10:00 AM 46.4 °F 40.7 °F 42.8 °F 87% 29.56 in 6.2 mi South 12.7 mph - N/A Rain Light Rain Showers
10:30 AM 48.2 °F - 42.8 °F 82% 29.59 in 6.2 mi SSW 18.4 mph - N/A Rain Light Rain Showers
11:00 AM 50.0 °F - 42.8 °F 76% 29.59 in 6.2 mi SSW 18.4 mph - N/A   Partly Cloudy
11:30 AM 48.2 °F - 42.8 °F 82% 29.59 in 6.2 mi SW 23.0 mph - N/A   Mostly Cloudy
12:00 PM 50 °F - 44 °F 72% 29.60 in 12 mi SSW 17.9 mph - - Rain Light Rain Showers
12:00 PM 50.0 °F - 44.6 °F 82% 29.59 in 6.2 mi SSW 17.3 mph - N/A   Scattered Clouds
12:30 PM 51.8 °F - 44.6 °F 76% 29.59 in 6.2 mi SSW 17.3 mph - N/A   Scattered Clouds
1:00 PM 51.8 °F - 44.6 °F 76% 29.56 in 6.2 mi SW 20.7 mph - N/A   Scattered Clouds
1:30 PM 51.8 °F - 44.6 °F 76% 29.59 in 6.2 mi SW 17.3 mph - N/A   Scattered Clouds
2:00 PM 51.8 °F - 44.6 °F 76% 29.59 in 6.2 mi SW 17.3 mph - N/A   Mostly Cloudy
2:30 PM 51.8 °F - 44.6 °F 76% 29.59 in 6.2 mi SW 16.1 mph - N/A   Mostly Cloudy
3:00 PM 50.0 °F - 42.8 °F 76% 29.59 in 6.2 mi SW 16.1 mph - N/A   Scattered Clouds
3:30 PM 50.0 °F - 42.8 °F 76% 29.59 in 6.2 mi SSW 16.1 mph - N/A   Scattered Clouds
4:00 PM 50.0 °F - 42.8 °F 76% 29.59 in 6.2 mi SSW 13.8 mph - N/A Rain Light Rain Showers
4:30 PM 50.0 °F - 42.8 °F 76% 29.59 in 6.2 mi SSW 10.4 mph - N/A   Scattered Clouds
5:00 PM 48.2 °F - 42.8 °F 82% 29.59 in 6.2 mi South 11.5 mph - N/A   Scattered Clouds
5:30 PM 48.2 °F - 42.8 °F 82% 29.59 in 6.2 mi South 10.4 mph - N/A   Scattered Clouds
6:00 PM 48 °F - 43 °F 77% 29.63 in 16 mi South 11.2 mph - -   Partly Cloudy
6:00 PM 48.2 °F - 42.8 °F 82% 29.62 in 6.2 mi South 10.4 mph - N/A   Scattered Clouds
6:30 PM 48.2 °F - 42.8 °F 82% 29.62 in 6.2 mi SSW 12.7 mph - N/A Rain Light Rain Showers
7:00 PM 48.2 °F - 42.8 °F 82% 29.62 in 6.2 mi SSW 15.0 mph - N/A   Scattered Clouds
7:30 PM 48.2 °F - 42.8 °F 82% 29.62 in 6.2 mi SSW 12.7 mph - N/A   Partly Cloudy
8:00 PM 46.4 °F 40.1 °F 42.8 °F 87% 29.62 in 6.2 mi SSW 15.0 mph - N/A Rain Light Rain Showers
8:30 PM 46.4 °F 41.1 °F 42.8 °F 87% 29.62 in 6.2 mi South 11.5 mph - N/A   Mostly Cloudy
9:00 PM 46.4 °F 41.1 °F 42.8 °F 87% 29.62 in 6.2 mi SSW 11.5 mph - N/A   Mostly Cloudy
9:30 PM 46.4 °F 42.9 °F 42.8 °F 87% 29.62 in 6.2 mi SSE 6.9 mph - N/A   Scattered Clouds
10:00 PM 46.4 °F 40.7 °F 42.8 °F 87% 29.62 in 6.2 mi SSW 12.7 mph - N/A Rain Light Rain Showers
10:30 PM 46.4 °F 41.1 °F 42.8 °F 87% 29.62 in 6.2 mi SSW 11.5 mph - N/A   Mostly Cloudy
11:00 PM 44.6 °F 39.2 °F 41.0 °F 87% 29.62 in 6.2 mi South 10.4 mph - N/A   Mostly Cloudy
11:30 PM 44.6 °F 39.7 °F 41.0 °F 87% 29.62 in 6.2 mi South 9.2 mph - N/A   Mostly Cloudy